Regional Weather Roundup
Issued by NWS Kansas City/Pleasant Hill, MO

Home | Current Version | Previous Version | Graphics & Text | Print | Product List | Glossary Off
Versions: 1 2 3 4 5 6 7 8 9 10 11 12 13 14 15 16 17 18 19 20 21 22 23 24 25 26 27 28 29 30 31 32 33 34 35 36 37 38 39 40 41 42 43 44 45 46 47 48 49 50

000
ASUS43 KEAX 261611
RWREAX

WEATHER ROUNDUP FOR EASTERN KANSAS AND NORTHWEST MISSOURI
NATIONAL WEATHER SERVICE KANSAS CITY/PLEASANT HILL MO
1100 AM CDT THU MAR 26 2015

KSZ040-057-103>105-MOZ028-029-037-043-261700-
...KANSAS CITY METROPOLITAN AREA...

CITY           SKY/WX    TMP DP  RH WIND       PRES   REMARKS
K.C. INTL      MOSUNNY   42  28  57 N15       30.21F WCI  34
K.C. DOWNTOWN  SUNNY     45  27  49 N14G20    30.21F
LEES SUMMIT    SUNNY     42  24  49 N13       30.20F
OLATHE - IXD   SUNNY     43  26  51 N16G23    30.22S
OLATHE - OJC   SUNNY     43  24  47 N14       30.20F
LAWRENCE       SUNNY     44  29  55 N9G17     30.23F

$$

MOZ001>008-011>017-020>025-030>033-038>040-044>046-053-054-261700-
...NORTHERN AND CENTRAL MISSOURI...

CITY           SKY/WX    TMP DP  RH WIND       PRES   REMARKS
ST. JOSEPH     SUNNY     41  28  60 N9        30.23F
MOSBY          SUNNY     41  27  56 N13       30.21F WCI  34
WARRENSBURG    SUNNY     41  28  60 N10G17    30.20S WCI  35
WHITEMAN AFB   SUNNY     42  28  56 N14       30.18S WCI  35
CLINTON        MOSUNNY   43  32  65 N14       30.18F
SEDALIA        MOSUNNY   42  29  59 N18       30.18S WCI  34
WARSAW         NOT AVBL
MARSHALL       MOSUNNY   43  30  61 N12       30.19F
CHILLICOTHE      N/A     42  26  53 N9G22     30.20F
MOBERLY        MOSUNNY   41  28  60 N10G16    30.16F WCI  35
KIRKSVILLE     SUNNY     41  26  55 NW15      30.15F WCI  33

$$

MOZ041-047>049-056>058-063>065-088>090-097-261700-
...EASTERN AND SOUTHERN MISSOURI...

CITY           SKY/WX    TMP DP  RH WIND       PRES   REMARKS
ST. LOUIS INTL CLOUDY    41  30  65 N14       30.09S WCI  33
SPIRIT OF STL  CLOUDY    41  29  62 N15       30.10S WCI  33
COLUMBIA       CLOUDY    39  29  67 N16       30.14S WCI  30
JEFFERSON CITY CLOUDY    41  28  60 NW13      30.15F WCI  34
MEXICO         PTSUNNY   39  32  75 NW16      30.13F WCI  30
HANNIBAL       MOSUNNY   41  21  45 NW12G18   30.12F WCI  34
ROLLA          CLOUDY    38  29  70 MISG      30.10S
LEBANON        CLOUDY    39  30  70 N16       30.12F WCI  30
OSAGE BEACH    CLOUDY    39  28  65 N8        30.15S WCI  34
SPRINGFIELD    PTSUNNY   42  31  64 N20       30.12S WCI  33
BRANSON        CLOUDY    41  39  93 N12G21    30.11F WCI  34
NEVADA         SUNNY     43  32  65 N13       30.20R
JOPLIN         MOSUNNY   45  32  60 N17G24    30.18R
WEST PLAINS    CLOUDY    40  35  83 MISG      30.08R

$$

IAZ060-094-KSZ022-034>040-054-083-096-NEZ052-066-093-261700-
...KANSAS...SOUTHEAST NEBRASKA AND IOWA...

CITY           SKY/WX    TMP DP  RH WIND       PRES   REMARKS
TOPEKA         SUNNY     43  28  55 N8        30.24F
MANHATTAN      SUNNY     42  28  57 CALM      30.26F
EMPORIA        SUNNY     44  27  51 N13G21    30.24R
CHANUTE        SUNNY     45  29  53 N14G23    30.21F
WICHITA        MOSUNNY   45  27  49 N10       30.26S
OMAHA          MOSUNNY   41  24  51 W9        30.23F
LINCOLN        SUNNY     43  23  45 N5        30.24F
FALLS CITY     SUNNY     42  27  55 N9        30.23F
LAMONI         SUNNY     43  22  43 N17G23    30.17F
DES MOINES     MOSUNNY   42  22  44 N20G30    30.17F WCI  33

$$




USA.gov is the U.S. government's official web portal to all federal, state and local government web resources and services.